DELTA 1 DEB, 21284

Orbit data source: Space-Track

DELTA 1 DEB, 21284 is space debris in SSO originally from a launch on Thu, 12 Jun 1975 UTC launched from the Air Force Western Test Range (AFWTR). Debris objects in space refer to the collection of defunct objects orbiting the Earth. Examples of debris include non-operational satellites, rocket bodies, and fragments generated from explosions, collisions, or faulty payload assembly.

Loading next visibility...
Identifier
21284, 1975-052V
Orbit
SSO
Country
Flag of USUS
Related business
Manufacturer
Unknown
Mission
Spacecraft
Bus & Motor
Unknown
Mass
Unknown
Launch date (UTC)
1975-06-12 (51 years ago)
Launch vehicle
Unknown
Launch site
Air Force Western Test Range (AFWTR)
Object type
Payload
Rocket body
Debris
Shape & HBR
Unknown shape, 0.5 m
Radar Cross Section
Medium (>0.1 m² and <1 m²)

Expand to show TLE details & history
Last TLE update: 20 hours ago

TLE from 20 hours ago
0 DELTA 1 DEB
1 21284U 75052V   25348.81404972  .00000066  00000-0  22261-3 0  9991
2 21284  99.8504  70.6515 0077323  75.4073  34.6077 13.31332554681053
Epoch: 2025-12-14T19:32Z
TLE epoch observation values (Epoch: 2025-12-14T19:32:13.895Z)
Latitude
67.41044°
Longitude
-101.59552°
Altitude
1,105.596 km
Speed
7.329 km/s
True Right ascension
18h 20m 44s
True Declination
67° 17' 38"
Sunlit
Object was in daylight at epoch
Visualization orbit readout
Latitude
Unknown
Longitude
Unknown
Altitude
Unknown
Speed
Unknown
Apparent Right ascension
Unknown
Apparent Declination
Unknown
Sunlit
N/A
Visualization observer readout
Local Sidereal Time
13:42:29
Azimuth
Unknown
Elevation
Unknown
Doppler factor
Unknown
Orbital elements
Apogee altitude
1,197.2 km
Perigee altitude
1,080.95 km
Semi-major axis
7,517.212 km
Eccentricity
0.00773
Inclination
99.8504°
RAAN
70.6515°
Arg. of periapsis
75.4073°
True anomaly
35.11497°
Mean anomaly
34.6077°
Eccentric anomaly
34.86093°
Mean motion
3.33011 °/min
Orbital period
108.1 mins
BSTAR
0.00022261
Loading maneuver chart data...
Computing Atmospheric mass density...

Documentation

Showing up to 5 results
|